{"data":{"norad_id":57968,"intl_designator":"2023-151E","name":"STARLINK-30495","alt_names":[],"object_type":"PAYLOAD","status":"ACTIVE","operator":null,"country":"US","launch_date":"2023-09-30","launch_site_code":"AFETR","launch_vehicle":null,"mission":null,"orbit_class":"UNKNOWN","rcs_meters":null,"size_class":null,"mass_kg":null,"dimensions":null,"purposes":["comms"],"wikipedia_slug":null,"has_3d_model":false,"image_url":null,"decayed_at":null,"tle_current":{"epoch":"2026-05-25T01:03:35.117280Z","epoch_age_seconds":64527,"freshness":"FRESH","line1":"1 57968U 23151E   26145.04415645 -.00000283  00000+0 -76985-6 0  9999","line2":"2 57968  43.0015 264.8129 0000924 288.1471  71.9279 15.27578048147440","mean_motion":15.27578048,"eccentricity":9.24e-5,"inclination_deg":43.0015,"raan_deg":264.8129,"arg_perigee_deg":288.1471,"mean_anomaly_deg":71.9279,"bstar":-7.6985e-7,"rev_number":14744,"period_min":94.266869171453,"perigee_km":482.42096690075,"apogee_km":483.68891517146,"semimajor_km":6861.1919410361,"source":"CELESTRAK","updated_at":"2026-05-25T13:38:18.484291Z"}}}